Time,TemperatureF,DewpointF,PressureIn,WindDirection,WindDirectionDegrees,WindSpeedMPH,WindSpeedGustMPH,Humidity,HourlyPrecipIn,Conditions,Clouds,dailyrainin,SoftwareType,DateUTC
2015-03-31 00:00:00,45.9,35.2,30.00,WSW,246,0.0,1.0,66,0.00,,,0.00,WeatherCatV2.02B30,2015-03-31 04:00:00,
2015-03-31 00:05:00,45.9,35.2,29.99,WSW,246,0.0,0.0,66,0.00,,,0.00,WeatherCatV2.02B30,2015-03-31 04:05:00,
2015-03-31 00:10:00,45.9,35.2,29.99,WSW,246,0.0,1.0,66,0.00,,,0.00,WeatherCatV2.02B30,2015-03-31 04:10:00,
2015-03-31 00:15:00,45.8,35.1,29.99,WSW,246,0.0,0.0,66,0.00,,,0.00,WeatherCatV2.02B30,2015-03-31 04:15:00,
2015-03-31 00:20:00,45.8,35.1,29.99,WSW,246,0.0,1.0,66,0.00,,,0.00,WeatherCatV2.02B30,2015-03-31 04:20:00,
2015-03-31 00:25:00,45.8,35.1,29.99,WSW,246,0.0,0.0,66,0.00,,,0.00,WeatherCatV2.02B30,2015-03-31 04:25:00,
2015-03-31 00:30:00,45.7,35.0,29.99,WSW,246,0.0,0.0,66,0.00,,,0.00,WeatherCatV2.02B30,2015-03-31 04:30:00,
2015-03-31 00:35:00,45.6,34.9,29.99,WSW,246,0.0,1.0,66,0.00,,,0.00,WeatherCatV2.02B30,2015-03-31 04:35:00,
2015-03-31 00:40:00,45.5,35.2,29.98,WSW,246,0.0,0.0,67,0.00,,,0.00,WeatherCatV2.02B30,2015-03-31 04:40:00,
2015-03-31 00:45:00,45.5,35.2,29.98,WSW,246,0.0,0.0,67,0.00,,,0.00,WeatherCatV2.02B30,2015-03-31 04:45:00,
2015-03-31 00:50:00,45.4,35.1,29.98,WSW,238,0.0,2.0,67,0.00,,,0.00,WeatherCatV2.02B30,2015-03-31 04:50:00,
2015-03-31 00:55:00,45.4,35.1,29.98,WSW,252,1.0,3.0,67,0.00,,,0.00,WeatherCatV2.02B30,2015-03-31 04:55:00,
2015-03-31 01:00:00,45.4,35.1,29.98,WSW,250,0.0,0.0,67,0.00,,,0.00,WeatherCatV2.02B30,2015-03-31 05:00:00,
2015-03-31 01:05:00,45.3,35.0,29.97,WSW,250,0.0,0.0,67,0.00,,,0.00,WeatherCatV2.02B30,2015-03-31 05:05:00,
2015-03-31 01:10:00,45.2,34.9,29.97,WSW,250,0.0,1.0,67,0.00,,,0.00,WeatherCatV2.02B30,2015-03-31 05:10:00,
2015-03-31 01:15:00,45.1,34.8,29.97,SW,219,0.0,5.0,67,0.00,,,0.00,WeatherCatV2.02B30,2015-03-31 05:15:00,
2015-03-31 01:21:00,45.0,35.1,29.97,SW,219,1.0,1.0,68,0.00,,,0.00,WeatherCatV2.02B30,2015-03-31 05:21:00,
2015-03-31 01:26:00,44.7,34.8,29.97,SW,219,0.0,1.0,68,0.00,,,0.00,WeatherCatV2.02B30,2015-03-31 05:26:00,
2015-03-31 01:30:00,44.5,34.6,29.96,SW,219,0.0,1.0,68,0.00,,,0.00,WeatherCatV2.02B30,2015-03-31 05:30:00,
2015-03-31 01:35:00,44.2,34.7,29.96,SW,219,0.0,0.0,69,0.00,,,0.00,WeatherCatV2.02B30,2015-03-31 05:35:00,
2015-03-31 01:41:00,43.9,34.4,29.96,SW,219,0.0,0.0,69,0.00,,,0.00,WeatherCatV2.02B30,2015-03-31 05:41:00,
2015-03-31 01:46:00,43.7,34.6,29.96,SW,219,0.0,0.0,70,0.00,,,0.00,WeatherCatV2.02B30,2015-03-31 05:46:00,
2015-03-31 01:50:00,43.4,34.3,29.95,SW,219,0.0,0.0,70,0.00,,,0.00,WeatherCatV2.02B30,2015-03-31 05:50:00,
2015-03-31 01:55:00,43.2,34.8,29.96,SW,219,0.0,0.0,72,0.00,,,0.00,WeatherCatV2.02B30,2015-03-31 05:55:00,
2015-03-31 02:00:00,43.0,34.6,29.95,SW,219,0.0,0.0,72,0.00,,,0.00,WeatherCatV2.02B30,2015-03-31 06:00:00,